| time (UTC) | temp C | wind direction | speed KPH | gust KPH | rain 1hr cm | rain 24hr cm | rain mn cm | humidity % | barometer mb |
| 20260831140152 | 24 | 129 | 6.4 | 16.1 | 0.00 | 0.00 | 0.00 | 73 | 1021.5 |
| 20260831135152 | 24 | 128 | 9.7 | 16.1 | 0.00 | 0.00 | 0.00 | 71 | 1021.7 |
| 20260831134152 | 24 | 136 | 4.8 | 11.3 | 0.00 | 0.00 | 0.00 | 71 | 1021.6 |
| 20260831134117 | 24 | 196 | 11.3 | 17.7 | 0.00 | 0.00 | 0.00 | 70 | 1021.7 |
| 20260831132152 | 25 | 139 | 9.7 | 12.9 | 0.00 | 0.00 | 0.00 | 70 | 1021.6 |
| 20260831131152 | 23 | 185 | 3.2 | 14.5 | 0.00 | 0.00 | 0.00 | 72 | 1021.6 |
| 20260831130153 | 24 | 150 | 3.2 | 16.1 | 0.00 | 0.00 | 0.00 | 70 | 1021.8 |
| 20260831125628 | 25 | 139 | 12.9 | 14.5 | 0.00 | 0.00 | 0.00 | 68 | 1022.0 |
| 20260831124153 | 24 | 108 | 8.0 | 14.5 | 0.00 | 0.00 | 0.00 | 70 | 1022.0 |
| 20260831123152 | 24 | 201 | 8.0 | 12.9 | 0.00 | 0.00 | 0.00 | 70 | 1022.1 |
| 20260831123114 | 24 | 112 | 6.4 | 14.5 | 0.00 | 0.00 | 0.00 | 70 | 1022.1 |
| 20260831121152 | 23 | 124 | 4.8 | 12.9 | 0.00 | 0.00 | 0.00 | 71 | 1022.0 |
| 20260831120153 | 23 | 119 | 4.8 | 14.5 | 0.00 | 0.00 | 0.00 | 71 | 1022.1 |
| 20260831115632 | 23 | 139 | 3.2 | 14.5 | 0.00 | 0.00 | 0.00 | 71 | 1022.2 |
| 20260831114151 | 23 | 68 | 4.8 | 12.9 | 0.00 | 0.00 | 0.00 | 73 | 1022.4 |
| 20260831113151 | 23 | 112 | 6.4 | 11.3 | 0.00 | 0.00 | 0.00 | 73 | 1022.5 |
| 20260831112151 | 22 | 164 | 8.0 | 12.9 | 0.00 | 0.00 | 0.00 | 76 | 1022.4 |
| 20260831111151 | 23 | 168 | 3.2 | 11.3 | 0.00 | 0.00 | 0.00 | 77 | 1022.3 |
| 20260831110151 | 22 | 143 | 6.4 | 11.3 | 0.00 | 0.00 | 0.00 | 81 | 1022.4 |
| 20260831105624 | 21 | 154 | 4.8 | 11.3 | 0.00 | 0.00 | 0.00 | 81 | 1022.4 |
| 20260831104151 | 22 | 90 | 4.8 | 11.3 | 0.00 | 0.00 | 0.00 | 81 | 1022.2 |
| 20260831103152 | 22 | 143 | 6.4 | 11.3 | 0.00 | 0.00 | 0.00 | 80 | 1022.1 |
| 20260831102154 | 21 | 146 | 3.2 | 6.4 | 0.00 | 0.00 | 0.00 | 82 | 1022.1 |
| 20260831101151 | 21 | 155 | 3.2 | 9.7 | 0.00 | 0.00 | 0.00 | 81 | 1022.3 |
| 20260831100151 | 21 | 164 | 3.2 | 9.7 | 0.00 | 0.00 | 0.00 | 81 | 1022.4 |
| 20260831095151 | 21 | 143 | 6.4 | 12.9 | 0.00 | 0.00 | 0.00 | 81 | 1022.3 |
| 20260831094152 | 21 | 132 | 9.7 | 12.9 | 0.00 | 0.00 | 0.00 | 80 | 1022.3 |
| 20260831093152 | 21 | 83 | 6.4 | 6.4 | 0.00 | 0.00 | 0.00 | 79 | 1022.2 |
| 20260831092152 | 22 | 150 | 6.4 | 6.4 | 0.00 | 0.00 | 0.00 | 76 | 1022.1 |
| 20260831091151 | 22 | 128 | 0.0 | 4.8 | 0.00 | 0.00 | 0.00 | 77 | 1022.2 |
| 20260831090152 | 21 | 134 | 1.6 | 3.2 | 0.00 | 0.00 | 0.00 | 77 | 1022.1 |
| 20260831085151 | 22 | 14 | 1.6 | 3.2 | 0.00 | 0.00 | 0.00 | 76 | 1022.0 |
| 20260831084151 | 22 | 32 | 0.0 | 3.2 | 0.00 | 0.00 | 0.00 | 76 | 1021.8 |
| 20260831083625 | 21 | 335 | 0.0 | 3.2 | 0.00 | 0.00 | 0.00 | 79 | 1021.9 |
| 20260831082627 | 20 | 28 | 1.6 | 3.2 | 0.00 | 0.00 | 0.00 | 80 | 1021.9 |
| 20260831081150 | 20 | 134 | 3.2 | 6.4 | 0.00 | 0.00 | 0.00 | 83 | 1021.8 |
| 20260831080150 | 18 | 4 | 3.2 | 6.4 | 0.00 | 0.00 | 0.00 | 84 | 1021.6 |
| 20260831075137 | 19 | 347 | 6.4 | 11.3 | 0.00 | 0.00 | 0.00 | 83 | 1021.3 |
| 20260831074138 | 18 | 345 | 6.4 | 12.9 | 0.00 | 0.00 | 0.00 | 85 | 1021.1 |
| 20260831073138 | 18 | 14 | 3.2 | 12.9 | 0.00 | 0.00 | 0.00 | 85 | 1020.9 |
| 20260831072138 | 18 | 332 | 8.0 | 12.9 | 0.00 | 0.00 | 0.00 | 86 | 1021.1 |
| 20260831071137 | 18 | 349 | 6.4 | 11.3 | 0.00 | 0.00 | 0.00 | 85 | 1021.0 |
| 20260831070138 | 18 | 348 | 4.8 | 9.7 | 0.00 | 0.00 | 0.00 | 86 | 1021.0 |
| 20260831065138 | 18 | 326 | 4.8 | 6.4 | 0.00 | 0.00 | 0.00 | 86 | 1021.0 |
| 20260831064138 | 18 | 342 | 4.8 | 6.4 | 0.00 | 0.00 | 0.00 | 86 | 1020.6 |
| 20260831063138 | 17 | 330 | 4.8 | 6.4 | 0.00 | 0.00 | 0.00 | 87 | 1020.5 |
| 20260831062138 | 18 | 339 | 3.2 | 4.8 | 0.00 | 0.00 | 0.00 | 86 | 1020.5 |
| 20260831061139 | 18 | 346 | 1.6 | 6.4 | 0.00 | 0.00 | 0.00 | 86 | 1020.1 |
| 20260831060138 | 18 | 330 | 4.8 | 9.7 | 0.00 | 0.00 | 0.00 | 86 | 1020.4 |
| 20260831055615 | 17 | 347 | 4.8 | 9.7 | 0.00 | 0.00 | 0.00 | 87 | 1020.2 |
| 20260831054137 | 17 | 341 | 3.2 | 9.7 | 0.00 | 0.00 | 0.00 | 87 | 1020.2 |
| 20260831053138 | 17 | 344 | 6.4 | 9.7 | 0.00 | 0.00 | 0.00 | 88 | 1020.5 |
| 20260831052137 | 17 | 359 | 3.2 | 6.4 | 0.00 | 0.00 | 0.00 | 89 | 1020.4 |
| 20260831051137 | 17 | 352 | 4.8 | 6.4 | 0.00 | 0.00 | 0.00 | 88 | 1020.5 |
| 20260831050139 | 17 | 341 | 4.8 | 6.4 | 0.00 | 0.00 | 0.00 | 88 | 1020.4 |
| 20260831045137 | 17 | 343 | 1.6 | 6.4 | 0.00 | 0.00 | 0.00 | 87 | 1020.4 |
| 20260831044137 | 17 | 340 | 4.8 | 6.4 | 0.00 | 0.00 | 0.00 | 87 | 1020.4 |
| 20260831043137 | 17 | 339 | 3.2 | 6.4 | 0.00 | 0.00 | 0.00 | 87 | 1020.4 |
| 20260831042138 | 17 | 346 | 3.2 | 6.4 | 0.00 | 0.00 | 0.00 | 86 | 1020.5 |
| 20260831040136 | 18 | 311 | 4.8 | 11.3 | 0.00 | 0.00 | 0.00 | 86 | 1020.5 |
| 20260831035130 | 18 | 344 | 4.8 | 9.7 | 0.00 | 0.00 | 0.00 | 86 | 1020.5 |
| 20260831034130 | 17 | 335 | 4.8 | 6.4 | 0.00 | 0.00 | 0.00 | 86 | 1020.6 |
| 20260831033606 | 18 | 340 | 3.2 | 6.4 | 0.00 | 0.00 | 0.00 | 86 | 1020.6 |
| 20260831032131 | 18 | 352 | 4.8 | 9.7 | 0.00 | 0.00 | 0.00 | 86 | 1020.6 |
| 20260831031130 | 18 | 354 | 3.2 | 9.7 | 0.00 | 0.00 | 0.00 | 86 | 1020.5 |
| 20260831030615 | 18 | 341 | 4.8 | 6.4 | 0.00 | 0.00 | 0.00 | 85 | 1020.9 |
| 20260831025129 | 18 | 342 | 3.2 | 6.4 | 0.00 | 0.00 | 0.00 | 85 | 1020.8 |
| 20260831024129 | 17 | 2 | 3.2 | 4.8 | 0.00 | 0.00 | 0.00 | 86 | 1020.7 |
| 20260831023129 | 18 | 340 | 3.2 | 6.4 | 0.00 | 0.00 | 0.00 | 84 | 1020.9 |
| 20260831022613 | 18 | 2 | 4.8 | 11.3 | 0.00 | 0.00 | 0.00 | 84 | 1021.1 |
| 20260831021129 | 18 | 339 | 3.2 | 6.4 | 0.00 | 0.00 | 0.00 | 86 | 1021.2 |
| 20260831020128 | 18 | 351 | 3.2 | 6.4 | 0.00 | 0.00 | 0.00 | 86 | 1021.6 |
| 20260831015128 | 18 | 339 | 4.8 | 6.4 | 0.00 | 0.00 | 0.00 | 86 | 1021.7 |
| 20260831014615 | 17 | 345 | 4.8 | 6.4 | 0.00 | 0.00 | 0.00 | 87 | 1021.6 |
| 20260831013122 | 18 | 353 | 4.8 | 6.4 | 0.00 | 0.00 | 0.00 | 86 | 1021.5 |
| 20260831012123 | 18 | 355 | 3.2 | 6.4 | 0.00 | 0.00 | 0.00 | 86 | 1021.5 |
| 20260831011125 | 18 | 338 | 4.8 | 9.7 | 0.00 | 0.00 | 0.00 | 86 | 1021.8 |
| 20260831010121 | 18 | 336 | 6.4 | 9.7 | 0.00 | 0.00 | 0.00 | 86 | 1021.9 |
| 20260831005122 | 18 | 343 | 6.4 | 9.7 | 0.00 | 0.00 | 0.00 | 86 | 1022.0 |
| 20260831004122 | 18 | 348 | 3.2 | 6.4 | 0.00 | 0.00 | 0.00 | 85 | 1021.9 |
| 20260831003122 | 18 | 342 | 3.2 | 6.4 | 0.00 | 0.00 | 0.00 | 85 | 1021.9 |
| 20260831002122 | 18 | 340 | 4.8 | 9.7 | 0.00 | 0.00 | 0.00 | 84 | 1021.9 |
| 20260831001124 | 18 | 349 | 3.2 | 6.4 | 0.00 | 0.00 | 0.00 | 84 | 1022.0 |
| 20260831000121 | 18 | 336 | 4.8 | 6.4 | 0.00 | 0.00 | 0.00 | 86 | 1022.0 |
| 20260830235121 | 18 | 341 | 3.2 | 6.4 | 0.00 | 0.00 | 0.00 | 85 | 1022.1 |
| 20260830234123 | 18 | 332 | 0.0 | 6.4 | 0.00 | 0.00 | 0.00 | 84 | 1021.8 |
| 20260830234036 | 18 | 332 | 6.4 | 9.7 | 0.00 | 0.00 | 0.00 | 86 | 1021.7 |
| 20260830232114 | 18 | 343 | 4.8 | 9.7 | 0.00 | 0.00 | 0.00 | 85 | 1022.0 |
| 20260830231114 | 18 | 341 | 6.4 | 6.4 | 0.00 | 0.00 | 0.00 | 85 | 1021.7 |
| 20260830230113 | 18 | 352 | 6.4 | 9.7 | 0.00 | 0.00 | 0.00 | 85 | 1021.7 |
| 20260830230036 | 18 | 342 | 3.2 | 6.4 | 0.00 | 0.00 | 0.00 | 86 | 1021.7 |
| 20260830224114 | 18 | 333 | 3.2 | 6.4 | 0.00 | 0.00 | 0.00 | 86 | 1022.0 |
| 20260830223112 | 18 | 359 | 3.2 | 4.8 | 0.00 | 0.00 | 0.00 | 86 | 1022.0 |
| 20260830222114 | 18 | 345 | 1.6 | 9.7 | 0.00 | 0.00 | 0.00 | 86 | 1021.8 |
| 20260830221547 | 18 | 346 | 3.2 | 4.8 | 0.00 | 0.00 | 0.00 | 87 | 1022.1 |
| 20260830220112 | 18 | 338 | 3.2 | 4.8 | 0.00 | 0.00 | 0.00 | 86 | 1021.8 |
| 20260830215112 | 18 | 341 | 3.2 | 9.7 | 0.00 | 0.00 | 0.00 | 86 | 1021.6 |
| 20260830214112 | 18 | 16 | 4.8 | 9.7 | 0.00 | 0.00 | 0.00 | 86 | 1021.9 |
| 20260830213600 | 18 | 339 | 4.8 | 6.4 | 0.00 | 0.00 | 0.00 | 86 | 1021.8 |
| 20260830212112 | 18 | 343 | 3.2 | 4.8 | 0.00 | 0.00 | 0.00 | 86 | 1021.7 |
| 20260830211112 | 18 | 6 | 1.6 | 11.3 | 0.00 | 0.00 | 0.00 | 86 | 1021.6 |
| 20260830210053 | 18 | 337 | 4.8 | 4.8 | 0.00 | 0.00 | 0.00 | 87 | 1021.3 |
| 20260830205532 | 18 | 335 | 3.2 | 6.4 | 0.00 | 0.00 | 0.00 | 87 | 1021.5 |
| 20260830204054 | 18 | 347 | 4.8 | 6.4 | 0.00 | 0.00 | 0.00 | 87 | 1021.3 |
| 20260830203054 | 19 | 348 | 3.2 | 3.2 | 0.00 | 0.00 | 0.00 | 86 | 1021.2 |
| 20260830202053 | 19 | 330 | 1.6 | 3.2 | 0.00 | 0.00 | 0.00 | 86 | 1021.0 |
| 20260830201531 | 19 | 148 | 0.0 | 1.6 | 0.00 | 0.00 | 0.00 | 84 | 1020.9 |
| 20260830200054 | 20 | 132 | 0.0 | 3.2 | 0.00 | 0.00 | 0.00 | 84 | 1020.9 |
| 20260830195108 | 20 | 129 | 3.2 | 3.2 | 0.00 | 0.00 | 0.00 | 84 | 1020.7 |
| 20260830194053 | 20 | 142 | 3.2 | 4.8 | 0.00 | 0.00 | 0.00 | 84 | 1020.7 |
| 20260830193531 | 20 | 137 | 4.8 | 4.8 | 0.00 | 0.00 | 0.00 | 83 | 1021.0 |
| 20260830192053 | 20 | 106 | 3.2 | 4.8 | 0.00 | 0.00 | 0.00 | 83 | 1020.7 |
| 20260830191053 | 20 | 118 | 1.6 | 6.4 | 0.00 | 0.00 | 0.00 | 82 | 1020.8 |
| 20260830190530 | 20 | 132 | 3.2 | 4.8 | 0.00 | 0.00 | 0.00 | 82 | 1020.8 |
| 20260830185053 | 20 | 153 | 3.2 | 6.4 | 0.00 | 0.00 | 0.00 | 81 | 1020.8 |
| 20260830184053 | 20 | 139 | 1.6 | 6.4 | 0.00 | 0.00 | 0.00 | 81 | 1021.0 |
| 20260830183047 | 21 | 130 | 1.6 | 6.4 | 0.00 | 0.00 | 0.00 | 80 | 1020.9 |
| 20260830182046 | 21 | 145 | 4.8 | 6.4 | 0.00 | 0.00 | 0.00 | 80 | 1020.6 |
| 20260830181046 | 21 | 156 | 3.2 | 9.7 | 0.00 | 0.00 | 0.00 | 80 | 1020.6 |
| 20260830180048 | 21 | 104 | 8.0 | 11.3 | 0.00 | 0.00 | 0.00 | 79 | 1020.7 |
| 20260830175046 | 21 | 147 | 1.6 | 9.7 | 0.00 | 0.00 | 0.00 | 79 | 1020.8 |
| 20260830174046 | 21 | 173 | 1.6 | 9.7 | 0.00 | 0.00 | 0.00 | 79 | 1020.7 |
| 20260830173035 | 21 | 120 | 3.2 | 11.3 | 0.00 | 0.00 | 0.00 | 78 | 1020.6 |
| 20260830172034 | 21 | 84 | 3.2 | 12.9 | 0.00 | 0.00 | 0.00 | 78 | 1020.5 |
| 20260830171034 | 21 | 103 | 9.7 | 12.9 | 0.00 | 0.00 | 0.00 | 77 | 1020.4 |
| 20260830170035 | 22 | 155 | 6.4 | 12.9 | 0.00 | 0.00 | 0.00 | 76 | 1020.7 |
| 20260830165035 | 22 | 217 | 6.4 | 12.9 | 0.00 | 0.00 | 0.00 | 75 | 1020.6 |
| 20260830164514 | 23 | 142 | 4.8 | 14.5 | 0.00 | 0.00 | 0.00 | 72 | 1020.5 |
| 20260830163034 | 23 | 154 | 11.3 | 12.9 | 0.00 | 0.00 | 0.00 | 72 | 1020.5 |
| 20260830162037 | 23 | 102 | 9.7 | 12.9 | 0.00 | 0.00 | 0.00 | 70 | 1020.6 |
| 20260830161018 | 23 | 210 | 3.2 | 14.5 | 0.00 | 0.00 | 0.00 | 71 | 1020.3 |
| 20260830160019 | 23 | 186 | 1.6 | 14.5 | 0.00 | 0.00 | 0.00 | 70 | 1020.5 |
| 20260830155025 | 23 | 125 | 6.4 | 12.9 | 0.00 | 0.00 | 0.00 | 70 | 1020.5 |
| 20260830154024 | 23 | 143 | 8.0 | 12.9 | 0.00 | 0.00 | 0.00 | 67 | 1020.7 |
| 20260830153019 | 23 | 130 | 3.2 | 11.3 | 0.00 | 0.00 | 0.00 | 69 | 1020.6 |
| 20260830152018 | 23 | 137 | 4.8 | 14.5 | 0.00 | 0.00 | 0.00 | 70 | 1020.8 |
| 20260830151029 | 23 | 131 | 8.0 | 14.5 | 0.00 | 0.00 | 0.00 | 68 | 1020.8 |
| 20260830150019 | 23 | 98 | 8.0 | 12.9 | 0.00 | 0.00 | 0.00 | 68 | 1021.1 |
| 20260830145017 | 23 | 201 | 8.0 | 12.9 | 0.00 | 0.00 | 0.00 | 69 | 1021.0 |
| 20260830144022 | 23 | 183 | 11.3 | 16.1 | 0.00 | 0.00 | 0.00 | 68 | 1021.1 |
| 20260830143507 | 23 | 127 | 9.7 | 14.5 | 0.00 | 0.00 | 0.00 | 68 | 1021.2 |
| 20260830142023 | 23 | 133 | 6.4 | 16.1 | 0.00 | 0.00 | 0.00 | 69 | 1021.0 |
| 20260830141023 | 23 | 112 | 6.4 | 16.1 | 0.00 | 0.00 | 0.00 | 69 | 1021.2 |